Location: Washington
(38.8950°N, 77.0370°W)
Time: 07:02:00
(UTC-04:00)

Amateur Radio Satellites - All Passes

Search period start: 25 May 2016 06:31
Search period end: 26 May 2016 06:31
Location: Washington, 38.8950°N, 77.0370°W

Satellite Date Start Highest point End Downlink Frequencies (MHz)
Time Altitude Azimuth
NOAA 15 25 May 06:32:06 06:36:49 32° 97° (E) 06:41:29 137.62
LilacSat-2 25 May 06:45:31 06:48:32 23° 95° (E) 06:51:34 437.200
GOMX 1 25 May 07:02:30 07:06:04 21° 92° (E) 07:09:27 467.674
CUBESAT XI-V 25 May 07:11:00 07:13:18 13° 269° (W) 07:15:37 437.345
CUTE-I 25 May 07:13:00 07:18:14 54° 100° (E) 07:23:28 437.470
STRAND 1 25 May 07:15:42 07:20:40 57° 73° (ENE) 07:25:40 437.568
HORYU 2 25 May 07:17:49 07:20:18 15° 296° (WNW) 07:22:47 437.375
AO-85 25 May 07:34:40 07:40:05 65° 303° (WNW) 07:45:26 145.980
AO-7 25 May 07:39:50 07:43:26 14° 313° (NW) 07:47:02 29.400- 29.500
NOAA 18 25 May 07:40:23 07:45:51 73° 287° (WNW) 07:51:18 137.9125
Cosmos 2504 25 May 07:49:01 07:53:33 16° 282° (WNW) 07:58:12 435.465 / 435.565
BRITE-PL 25 May 08:00:18 08:05:13 43° 289° (WNW) 08:09:45 437.365/2234.400
DOVE 4 25 May 08:05:19 08:09:34 44° 98° (E) 08:13:36 437.250
Cubesat XI-IV 25 May 08:05:47 08:10:57 50° 289° (WNW) 08:16:06 437.490
CANX-2 25 May 08:08:23 08:10:48 15° 92° (E) 08:13:12 2200.000
NOAA 15 25 May 08:11:55 08:16:30 31° 293° (WNW) 08:21:04 137.62
HO-68 25 May 08:15:48 08:21:33 25° 94° (E) 08:27:14 435.675
SEEDS 25 May 08:17:53 08:19:13 11° 91° (E) 08:20:32 437.485
LilacSat-2 25 May 08:19:49 08:22:44 22° 290° (WNW) 08:25:39 437.200
PRISM 25 May 08:26:46 08:30:47 53° 73° (ENE) 08:34:51 437.425
CUTE 1.7 + AOD 2 25 May 08:35:13 08:38:49 26° 95° (E) 08:42:24 437.475
GOMX 1 25 May 08:39:58 08:44:16 34° 290° (WNW) 08:48:18 467.674
Cosmos 2499 25 May 08:44:38 08:50:11 18° 65° (ENE) 08:55:49 435.465 / 435.565
GONETS M04 25 May 08:47:48 08:55:22 32° 71° (ENE) 09:02:53
CUTE-I 25 May 08:54:07 08:57:50 19° 297° (WNW) 09:01:33 437.470
CINEMA 3 25 May 08:56:42 09:00:45 47° 99° (E) 09:04:44 145.822/145.860
STRAND 1 25 May 08:57:12 09:00:11 16° 268° (W) 09:03:12 437.568
AIST 1 25 May 09:00:37 09:04:57 59° 81° (E) 09:09:12
JUGNU 25 May 09:03:15 09:05:00 11° 177° (S) 09:06:45 437.505
SO-50 25 May 09:03:28 09:06:02 14° 40° (NE) 09:08:34 436.795
UWE-3 25 May 09:05:30 09:06:50 11° 91° (E) 09:08:09 435.000/436.395/437.385
AUBIESAT-1 25 May 09:07:09 09:10:25 57° 106° (ESE) 09:13:40 437.475
COMPASS 1 25 May 09:07:14 09:10:58 30° 96° (E) 09:14:42 437.405
M-CUBED/EXP-1 PRIME 25 May 09:11:18 09:14:37 87° 112° (ESE) 09:17:52 437.505
AAUSAT CUBESAT 2 25 May 09:12:41 09:16:19 28° 96° (E) 09:19:54 437.432
AO-85 25 May 09:19:16 09:21:34 13° 322° (NW) 09:23:51 145.980
O/OREOS (USA 219) 25 May 09:28:01 09:30:57 17° 100° (E) 09:33:54 437.305
CANX-2 25 May 09:42:47 09:46:51 43° 287° (WNW) 09:50:55 2200.000
DOVE 4 25 May 09:44:17 09:46:50 15° 296° (WNW) 09:49:20 437.250
SEEDS 25 May 09:51:04 09:55:14 56° 286° (WNW) 09:59:23 437.485
HO-68 25 May 10:02:36 10:09:35 58° 291° (WNW) 10:16:34 435.675
Oscar 11 25 May 10:03:09 10:07:17 41° 98° (E) 10:11:23 145.826/435.025
CUBEBUG 2 25 May 10:04:57 10:09:07 88° 100° (E) 10:13:19 437.445
PRISM 25 May 10:05:05 10:06:24 11° 269° (W) 10:07:44 437.425
DELFI C3 25 May 10:06:18 10:09:18 20° 94° (E) 10:12:17 145.870
CUTE 1.7 + AOD 2 25 May 10:11:03 10:14:33 25° 291° (WNW) 10:18:02 437.475
UNISAT 6 25 May 10:11:43 10:15:46 37° 72° (ENE) 10:19:45 437.425
ZACube-1 25 May 10:11:49 10:15:51 45° 99° (E) 10:19:55 437.345
TIGRISAT 25 May 10:20:07 10:24:16 43° 73° (ENE) 10:28:22 435.000
POPSAT HIP 1 25 May 10:32:51 10:33:58 11° 63° (ENE) 10:35:05 437.405
QB50P1 25 May 10:33:18 10:34:38 11° 63° (ENE) 10:35:57 145.935-145.965
QB50P2 25 May 10:34:10 10:35:54 12° 64° (ENE) 10:37:39 145.880/145.840
CINEMA 3 25 May 10:35:26 10:37:28 13° 295° (WNW) 10:39:30 145.822/145.860
Cosmos 2499 25 May 10:35:46 10:44:22 89° 84° (E) 10:53:17 435.465 / 435.565
POLYITAN 1 25 May 10:36:31 10:38:20 13° 64° (ENE) 10:40:09 437.675
UWE-3 25 May 10:39:32 10:43:35 53° 286° (WNW) 10:47:41 435.000/436.395/437.385
AIST 1 25 May 10:41:24 10:41:55 10° 277° (W) 10:42:26
SO-50 25 May 10:42:28 10:47:10 83° 240° (WSW) 10:51:42 436.795
COMPASS 1 25 May 10:43:10 10:46:20 21° 292° (WNW) 10:49:30 437.405
GONETS M04 25 May 10:44:09 10:52:29 53° 270° (W) 11:00:48
HUMSAT D 25 May 10:44:31 10:47:57 24° 96° (E) 10:51:23 437.325/437.525
AAUSAT CUBESAT 2 25 May 10:48:22 10:51:38 22° 291° (WNW) 10:54:55 437.432
PCSat 25 May 10:49:51 10:55:16 86° 117° (ESE) 11:00:43 145.827
FUNcube-1 25 May 10:51:24 10:55:32 63° 284° (WNW) 10:59:42 145.935
NANOSAT C BR1 25 May 10:51:41 10:54:29 18° 67° (ENE) 10:57:18 145.865
SRMSAT 25 May 10:51:55 10:53:09 11° 175° (S) 10:54:22 437.500
ANTELSAT 25 May 10:52:39 10:57:03 75° 259° (W) 11:01:23 437.575/2403.000
JUGNU 25 May 10:52:45 10:53:05 10° 188° (S) 10:53:24 437.505
O/OREOS (USA 219) 25 May 11:05:39 11:09:59 42° 295° (WNW) 11:14:20 437.305
ESTCUBE 1 25 May 11:19:02 11:20:12 11° 90° (E) 11:21:22 437.505/2401.250
DUCHIFAT 1 25 May 11:30:11 11:34:11 44° 73° (ENE) 11:38:13 145.980
CUSAT 1 25 May 11:34:10 11:39:02 26° 83° (E) 11:44:45 437.405
Oscar 11 25 May 11:40:18 11:43:03 17° 294° (WNW) 11:45:49 145.826/435.025
DELFI C3 25 May 11:40:40 11:44:09 28° 289° (WNW) 11:47:38 145.870
ZACube-1 25 May 11:49:31 11:51:46 14° 294° (WNW) 11:54:01 437.345
UNISAT 6 25 May 11:49:35 11:52:35 18° 266° (W) 11:55:34 437.425
VELOX 1 25 May 11:51:06 11:53:56 17° 93° (E) 11:56:44 145.980
CUBEBUG 1 25 May 11:51:17 11:54:09 17° 93° (E) 11:57:01 437.445
HO-68 25 May 11:54:53 11:55:49 10° 310° (NW) 11:56:44 435.675
DX 1 25 May 11:55:18 11:57:50 15° 93° (E) 12:00:20 434.975-435.025
BEESAT 2 25 May 11:56:03 11:58:25 15° 110° (ESE) 12:00:48 435.950
TIGRISAT 25 May 11:58:33 12:01:08 15° 267° (W) 12:03:43 435.000
BUGSAT 1 25 May 11:59:37 12:03:38 44° 73° (ENE) 12:07:38 437.445
POPSAT HIP 1 25 May 12:04:59 12:09:11 65° 258° (WSW) 12:13:25 437.405
QB50P1 25 May 12:05:40 12:09:52 62° 259° (W) 12:14:05 145.935-145.965
QB50P2 25 May 12:07:02 12:11:12 56° 259° (W) 12:15:24 145.880/145.840
POLYITAN 1 25 May 12:09:29 12:13:40 55° 260° (W) 12:17:50 437.675
HUMSAT D 25 May 12:20:06 12:23:29 25° 290° (WNW) 12:26:53 437.325/437.525
AISAT 25 May 12:25:44 12:29:57 42° 99° (E) 12:34:06 437.250
NANOSAT C BR1 25 May 12:25:59 12:29:56 37° 262° (W) 12:33:52 145.865
SPROUT 25 May 12:30:29 12:33:19 17° 93° (E) 12:36:10 437.525
Cosmos 2499 25 May 12:31:10 12:36:22 18° 281° (W) 12:41:40 435.465 / 435.565
BEESAT 3 25 May 12:34:16 12:38:10 80° 120° (ESE) 12:42:08 437.485
PCSat 25 May 12:36:12 12:39:23 16° 316° (NW) 12:42:36 145.827
SRMSAT 25 May 12:40:08 12:41:23 11° 185° (S) 12:42:37 437.500
JAS-2 25 May 12:40:09 12:47:04 52° 69° (ENE) 12:54:32 435.910
DANDE 25 May 12:45:29 12:50:12 43° 89° (E) 12:56:24 436.750
UKube-1 25 May 12:48:12 12:52:24 48° 100° (E) 12:56:34 .
ESTCUBE 1 25 May 12:52:54 12:57:26 65° 285° (WNW) 13:01:55 437.505/2401.250
50 SAT 25 May 12:58:50 13:02:30 60° 285° (WNW) 13:06:09 437.505
TISAT 1 25 May 13:06:05 13:07:05 11° 91° (E) 13:08:06 437.305
DUCHIFAT 1 25 May 13:07:49 13:10:06 14° 268° (W) 13:12:23 145.980
CUSAT 1 25 May 13:14:42 13:20:31 51° 286° (WNW) 13:27:44 437.405
Oscar 19 25 May 13:21:53 13:26:53 51° 72° (ENE) 13:31:55 437.125/150
Gurwin Techsat 1B 25 May 13:24:47 13:28:52 23° 65° (ENE) 13:32:59 435.225
VELOX 1 25 May 13:26:25 13:30:34 41° 288° (WNW) 13:34:42 145.980
CUBEBUG 1 25 May 13:26:30 13:30:35 39° 288° (WNW) 13:34:38 437.445
DX 1 25 May 13:30:04 13:34:13 44° 288° (WNW) 13:38:20 434.975-435.025
BEESAT 2 25 May 13:32:08 13:35:54 41° 305° (NW) 13:39:43 435.950
BUGSAT 1 25 May 13:36:57 13:39:13 14° 268° (W) 13:41:27 437.445
AIST 2 25 May 13:44:04 13:46:16 14° 109° (ESE) 13:48:30 435.215
ITAMSAT 1 25 May 13:59:28 14:03:01 19° 64° (ENE) 14:06:35 435.822/435.867
AISAT 25 May 14:03:13 14:06:04 17° 295° (WNW) 14:08:54 437.250
Cosmos 2491 25 May 14:04:01 14:07:51 13° 60° (ENE) 14:11:40 435.465 / 435.565
SPROUT 25 May 14:05:29 14:09:24 36° 288° (WNW) 14:13:16 437.525
SWISSCUBE 25 May 14:08:58 14:10:54 12° 91° (E) 14:12:50 437.505
ITUPSAT 1 25 May 14:13:46 14:15:38 12° 91° (E) 14:17:30 437.325
BEESAT 3 25 May 14:15:08 14:16:23 11° 317° (NW) 14:17:39 437.485
UKube-1 25 May 14:25:38 14:28:01 15° 296° (WNW) 14:30:25 .
JAS-2 25 May 14:26:04 14:32:17 31° 267° (W) 14:38:59 435.910
DANDE 25 May 14:29:03 14:33:26 25° 295° (WNW) 14:38:51 436.750
AO-85 25 May 14:29:57 14:31:45 12° 37° (NE) 14:33:29 145.980
BEESAT 25 May 14:37:27 14:41:13 23° 95° (E) 14:44:58 436.000
TISAT 1 25 May 14:38:59 14:43:05 56° 286° (WNW) 14:47:08 437.305
AO-7 25 May 14:49:59 14:57:15 36° 60° (ENE) 15:04:34 29.400- 29.500
Oscar 19 25 May 15:02:57 15:06:27 18° 267° (W) 15:10:00 437.125/150
Gurwin Techsat 1B 25 May 15:03:30 15:08:32 43° 261° (W) 15:13:35 435.225
AIST 2 25 May 15:20:20 15:24:20 48° 305° (NW) 15:28:21 435.215
ITAMSAT 1 25 May 15:37:03 15:42:04 51° 260° (W) 15:47:08 435.822/435.867
SWISSCUBE 25 May 15:44:21 15:49:06 64° 286° (WNW) 15:53:50 437.505
ITUPSAT 1 25 May 15:49:06 15:53:53 65° 286° (WNW) 15:58:38 437.325
Cosmos 2491 25 May 15:57:38 16:06:24 73° 81° (E) 16:15:05 435.465 / 435.565
YUBILEINY 25 May 15:58:09 16:05:32 32° 84° (E) 16:12:55 435.215
AO-85 25 May 16:08:27 16:13:07 80° 59° (ENE) 16:17:20 145.980
MOZHAYETS 4 25 May 16:11:00 16:14:24 20° 94° (E) 16:17:48
KKS-1 25 May 16:13:27 16:17:14 27° 96° (E) 16:20:59 437.445
BEESAT 25 May 16:14:42 16:19:03 35° 290° (WNW) 16:23:22 436.000
HORYU 2 25 May 16:36:37 16:40:45 39° 71° (ENE) 16:44:52 437.375
AO-7 25 May 16:41:44 16:49:43 51° 258° (WSW) 16:57:47 29.400- 29.500
Cosmos 2504 25 May 16:42:58 16:45:19 12° 76° (ENE) 16:47:41 435.465 / 435.565
RS-15 25 May 16:44:39 16:53:37 29° 102° (ESE) 17:02:54 29.354- 29.394
STARS 25 May 16:55:38 16:59:45 40° 99° (E) 17:03:51 437.465
NOAA 18 25 May 17:26:27 17:30:45 24° 65° (ENE) 17:35:04 137.9125
LilacSat-2 25 May 17:28:45 17:29:30 10° 65° (ENE) 17:30:13 437.200
CUBESAT XI-V 25 May 17:30:08 17:32:58 16° 92° (E) 17:35:46 437.345
BRITE-PL 25 May 17:31:14 17:35:36 24° 66° (ENE) 17:40:02 437.365/2234.400
MOZHAYETS 4 25 May 17:47:25 17:51:40 37° 289° (WNW) 17:55:55
Cubesat XI-IV 25 May 17:47:29 17:51:59 29° 67° (ENE) 17:56:29 437.490
KKS-1 25 May 17:50:03 17:53:42 26° 292° (WNW) 17:57:19 437.445
NOAA 15 25 May 17:50:46 17:55:47 45° 70° (ENE) 18:00:51 137.62
YUBILEINY 25 May 17:53:31 18:01:54 51° 283° (WNW) 18:10:20 435.215
Cosmos 2491 25 May 17:56:05 18:02:17 22° 280° (W) 18:08:28 435.465 / 435.565
GOMX 1 25 May 18:08:16 18:12:40 25° 67° (ENE) 18:17:02 467.674
HORYU 2 25 May 18:14:31 18:17:27 17° 266° (W) 18:20:22 437.375
Cosmos 2504 25 May 18:30:06 18:37:16 84° 95° (E) 18:44:49 435.465 / 435.565
STARS 25 May 18:32:53 18:35:48 18° 294° (WNW) 18:38:42 437.465
CUTE-I 25 May 18:33:34 18:38:51 78° 75° (ENE) 18:44:11 437.470
HO-68 25 May 18:44:57 18:49:23 18° 56° (NE) 18:53:49 435.675
RS-15 25 May 18:53:28 19:04:46 76° 303° (WNW) 19:16:49 29.354- 29.394
LilacSat-2 25 May 18:59:36 19:03:20 52° 260° (W) 19:07:03 437.200
NOAA 18 25 May 19:05:58 19:11:07 43° 260° (W) 19:16:19 137.9125
CUBESAT XI-V 25 May 19:06:03 19:10:36 49° 287° (WNW) 19:15:07 437.345
BRITE-PL 25 May 19:08:18 19:13:40 48° 262° (W) 19:19:12 437.365/2234.400
DOVE 4 25 May 19:08:23 19:13:22 44° 72° (ENE) 19:18:12 437.250
Cubesat XI-IV 25 May 19:27:08 19:31:55 34° 263° (W) 19:36:43 437.490
CUTE 1.7 + AOD 2 25 May 19:27:37 19:30:14 16° 66° (ENE) 19:32:53 437.475
STRAND 1 25 May 19:28:11 19:32:03 21° 94° (E) 19:35:55 437.568
NOAA 15 25 May 19:31:48 19:35:45 21° 266° (W) 19:39:44 137.62
O/OREOS (USA 219) 25 May 19:37:52 19:41:41 27° 61° (ENE) 19:45:29 437.305
PCSat 25 May 19:39:03 19:44:22 52° 58° (ENE) 19:49:38 145.827
GOMX 1 25 May 19:45:16 19:50:27 43° 262° (W) 19:55:37 467.674
AUBIESAT-1 25 May 19:51:28 19:55:39 65° 70° (ENE) 19:59:33 437.475
M-CUBED/EXP-1 PRIME 25 May 19:55:56 20:00:16 89° 269° (W) 20:04:17 437.505
CINEMA 3 25 May 19:56:32 20:01:02 40° 72° (ENE) 20:05:20 145.822/145.860
COMPASS 1 25 May 19:57:34 20:00:23 18° 67° (ENE) 20:03:13 437.405
AAUSAT CUBESAT 2 25 May 20:02:40 20:05:15 16° 67° (ENE) 20:07:51 437.432
CUTE-I 25 May 20:17:37 20:19:27 12° 270° (W) 20:21:19 437.470
Cosmos 2504 25 May 20:27:31 20:31:43 16° 296° (WNW) 20:36:04 435.465 / 435.565
HO-68 25 May 20:29:00 20:36:10 88° 254° (WSW) 20:43:22 435.675
CANX-2 25 May 20:33:48 20:37:59 74° 260° (W) 20:42:12 2200.000
SEEDS 25 May 20:41:06 20:45:16 83° 76° (ENE) 20:49:27 437.485
DOVE 4 25 May 20:47:11 20:51:09 21° 267° (W) 20:55:03 437.250
BEESAT 3 25 May 20:52:56 20:56:28 30° 52° (NE) 20:59:58 437.485
DELFI C3 25 May 20:53:33 20:54:13 10° 64° (ENE) 20:54:53 145.870
Oscar 11 25 May 20:56:54 21:00:32 27° 70° (ENE) 21:04:11 145.826/435.025
CUBEBUG 2 25 May 21:01:27 21:05:50 62° 75° (ENE) 21:10:06 437.445
CUTE 1.7 + AOD 2 25 May 21:01:49 21:05:45 39° 262° (W) 21:09:43 437.475
STRAND 1 25 May 21:06:32 21:11:23 43° 290° (WNW) 21:16:13 437.568
ZACube-1 25 May 21:06:35 21:10:20 30° 71° (ENE) 21:14:01 437.345
RS-15 25 May 21:10:17 21:19:43 27° 331° (NNW) 21:29:33 29.354- 29.394
O/OREOS (USA 219) 25 May 21:17:16 21:20:59 26° 257° (WSW) 21:24:42 437.305
PCSat 25 May 21:23:27 21:27:19 20° 254° (WSW) 21:31:10 145.827
Cosmos 2499 25 May 21:26:10 21:26:41 10° 74° (ENE) 21:27:13 435.465 / 435.565
AIST 1 25 May 21:28:30 21:32:31 37° 92° (E) 21:36:35
COMPASS 1 25 May 21:31:55 21:35:41 34° 263° (W) 21:39:29 437.405
CINEMA 3 25 May 21:34:49 21:38:14 19° 266° (W) 21:41:36 145.822/145.860
UWE-3 25 May 21:34:49 21:39:11 80° 259° (WSW) 21:43:27 435.000/436.395/437.385
HUMSAT D 25 May 21:35:44 21:38:06 15° 66° (ENE) 21:40:27 437.325/437.525
AAUSAT CUBESAT 2 25 May 21:36:35 21:40:25 38° 262° (W) 21:44:17 437.432
PRISM 25 May 21:44:34 21:48:46 77° 283° (WNW) 21:52:55 437.425
FUNcube-1 25 May 21:45:19 21:49:35 83° 78° (ENE) 21:53:47 145.935
GONETS M04 25 May 21:47:17 21:55:10 38° 86° (E) 22:03:00
BEESAT 2 25 May 21:51:02 21:55:03 74° 59° (ENE) 21:59:00 435.950
CUSAT 1 25 May 22:10:04 22:15:53 22° 63° (ENE) 22:21:06 437.405
HO-68 25 May 22:21:23 22:24:45 14° 271° (W) 22:28:06 435.675
ISS 25 May 22:22:06 22:25:19 59° 138° (SE) 22:28:32 145.825
DELFI C3 25 May 22:24:40 22:28:33 58° 259° (W) 22:32:29 145.870
PHONESAT 2.4 25 May 22:26:30 22:28:26 15° 147° (SSE) 22:30:21 2401.200-2431.200
BEESAT 3 25 May 22:30:57 22:33:59 21° 248° (WSW) 22:36:59 437.485
Oscar 11 25 May 22:33:11 22:36:37 23° 265° (W) 22:40:06 145.826/435.025
CUBEBUG 2 25 May 22:41:48 22:42:47 11° 269° (W) 22:43:44 437.445
ZACube-1 25 May 22:43:27 22:46:38 20° 265° (W) 22:49:47 437.345
ANTELSAT 25 May 22:45:58 22:49:24 23° 95° (E) 22:52:52 437.575/2403.000
CUBEBUG 1 25 May 22:46:58 22:49:08 14° 64° (ENE) 22:51:19 437.445
VELOX 1 25 May 22:48:03 22:50:20 14° 64° (ENE) 22:52:37 145.980
DX 1 25 May 22:50:42 22:52:30 12° 63° (ENE) 22:54:17 434.975-435.025
AIST 1 25 May 23:07:19 23:10:15 17° 288° (WNW) 23:13:12
HUMSAT D 25 May 23:09:31 23:13:23 40° 261° (W) 23:17:14 437.325/437.525
Cosmos 2499 25 May 23:11:03 23:18:10 75° 95° (E) 23:25:49 435.465 / 435.565
AISAT 25 May 23:21:50 23:25:50 33° 70° (ENE) 23:29:52 437.250
SPROUT 25 May 23:24:09 23:25:58 12° 64° (ENE) 23:27:47 437.525
DANDE 25 May 23:24:36 23:32:34 43° 72° (ENE) 23:39:54 436.750
RS-15 25 May 23:30:12 23:38:15 19° 8° (N) 23:46:25 29.354- 29.394
50 SAT 25 May 23:35:42 23:39:10 45° 74° (ENE) 23:42:40 437.505
UNISAT 6 25 May 23:40:35 23:44:54 82° 283° (WNW) 23:49:15 437.425
UKube-1 25 May 23:41:29 23:45:25 35° 70° (ENE) 23:49:22 .
AIST 2 25 May 23:42:36 23:46:45 71° 58° (ENE) 23:50:53 435.215
GONETS M04 25 May 23:43:29 23:51:46 45° 285° (WNW) 00:00:06
TIGRISAT 25 May 23:48:56 23:53:11 70° 285° (WNW) 23:57:29 435.000
ESTCUBE 1 25 May 23:50:47 23:55:18 84° 259° (WSW) 23:59:51 437.505/2401.250
CUSAT 1 25 May 23:51:04 23:58:55 74° 265° (W) 00:05:26 437.405
POPSAT HIP 1 25 May 23:51:40 23:54:54 21° 95° (E) 23:58:06 437.405
QB50P1 25 May 23:52:15 23:55:32 22° 95° (E) 23:58:48 145.935-145.965
QB50P2 25 May 23:53:39 23:57:06 24° 96° (E) 00:00:31 145.880/145.840
POLYITAN 1 25 May 23:56:04 23:59:32 24° 96° (E) 00:02:58 437.675
ISS 25 May 23:59:30 00:01:59 20° 335° (NNW) 00:04:29 145.825
PHONESAT 2.4 26 May 00:01:42 00:04:49 67° 163° (SSE) 00:07:55 2401.200-2431.200
NANOSAT C BR1 26 May 00:11:28 00:15:19 34° 98° (E) 00:19:08 145.865
CUBEBUG 1 26 May 00:20:34 00:24:55 56° 260° (W) 00:29:19 437.445
VELOX 1 26 May 00:21:56 00:26:18 55° 259° (W) 00:30:43 145.980
ANTELSAT 26 May 00:22:26 00:26:05 28° 290° (WNW) 00:29:48 437.575/2403.000
DX 1 26 May 00:23:49 00:28:08 61° 259° (W) 00:32:30 434.975-435.025
DUCHIFAT 1 26 May 00:50:50 00:55:02 83° 284° (WNW) 00:59:11 145.980
SO-50 26 May 00:54:59 00:59:37 44° 115° (ESE) 01:04:16 436.795
SPROUT 26 May 00:57:11 01:01:25 57° 260° (W) 01:05:39 437.525
AISAT 26 May 00:58:56 01:02:21 21° 265° (W) 01:05:47 437.250
Cosmos 2499 26 May 01:07:23 01:12:13 19° 295° (WNW) 01:17:16 435.465 / 435.565
DANDE 26 May 01:07:36 01:15:21 42° 271° (W) 01:22:29 436.750
SWISSCUBE 26 May 01:14:34 01:16:52 14° 62° (ENE) 01:19:09 437.505
BUGSAT 1 26 May 01:17:45 01:21:49 88° 289° (WNW) 01:25:49 437.445
UKube-1 26 May 01:18:27 01:21:32 19° 266° (W) 01:24:38 .
ITUPSAT 1 26 May 01:19:36 01:21:54 13° 62° (ENE) 01:24:10 437.325
POPSAT HIP 1 26 May 01:27:03 01:30:41 29° 290° (WNW) 01:34:17 437.405
QB50P1 26 May 01:27:42 01:31:17 28° 290° (WNW) 01:34:51 145.935-145.965
TISAT 1 26 May 01:28:52 01:33:07 88° 72° (ENE) 01:37:21 437.305
QB50P2 26 May 01:29:20 01:32:50 26° 291° (WNW) 01:36:18 145.880/145.840
POLYITAN 1 26 May 01:31:49 01:35:15 25° 291° (WNW) 01:38:42 437.675
Oscar 19 26 May 01:35:37 01:39:17 19° 93° (E) 01:42:55 437.125/150
JAS-2 26 May 01:36:40 01:43:56 51° 98° (E) 01:50:24 435.910
CUSAT 1 26 May 01:36:54 01:39:20 12° 284° (WNW) 01:41:40 437.405
PHONESAT 2.4 26 May 01:38:31 01:41:37 62° 359° (N) 01:44:43 2401.200-2431.200
BEESAT 26 May 01:42:51 01:46:35 24° 67° (ENE) 01:50:20 436.000
RS-15 26 May 01:44:27 01:55:43 39° 41° (NE) 02:06:59 29.354- 29.394
NANOSAT C BR1 26 May 01:47:55 01:50:47 18° 293° (WNW) 01:53:38 145.865
YUBILEINY 26 May 02:10:46 02:15:04 14° 61° (ENE) 02:19:19 435.215
SO-50 26 May 02:36:15 02:40:17 25° 313° (NW) 02:44:19 436.795
SWISSCUBE 26 May 02:49:23 02:54:05 65° 258° (WSW) 02:58:49 437.505
ITUPSAT 1 26 May 02:54:26 02:59:09 65° 258° (WSW) 03:03:54 437.325
Cosmos 2491 26 May 03:05:17 03:09:56 16° 77° (ENE) 03:14:34 435.465 / 435.565
KKS-1 26 May 03:10:33 03:14:02 23° 67° (ENE) 03:17:31 437.445
MOZHAYETS 4 26 May 03:12:20 03:15:16 17° 65° (ENE) 03:18:12
Oscar 19 26 May 03:13:53 03:18:49 47° 289° (WNW) 03:23:43 437.125/150
PHONESAT 2.4 26 May 03:15:19 03:18:28 82° 196° (SSW) 03:21:35 2401.200-2431.200
ISS 26 May 03:15:35 03:17:06 13° 16° (NNE) 03:18:38 145.825
BEESAT 26 May 03:19:51 03:24:10 34° 262° (W) 03:28:30 436.000
Gurwin Techsat 1B 26 May 03:20:32 03:25:54 83° 104° (ESE) 03:31:12 435.225
JAS-2 26 May 03:22:08 03:28:31 31° 297° (WNW) 03:34:24 435.910
ITAMSAT 1 26 May 03:50:52 03:56:04 62° 102° (ESE) 04:01:13 435.822/435.867
STARS 26 May 03:51:06 03:54:59 31° 70° (ENE) 03:58:51 437.465
RS-15 26 May 03:56:59 04:09:13 72° 245° (WSW) 04:21:20 29.354- 29.394
YUBILEINY 26 May 04:04:39 04:13:26 76° 81° (E) 04:22:13 435.215
Cosmos 2504 26 May 04:23:15 04:30:26 30° 71° (ENE) 04:37:53 435.465 / 435.565
CUBESAT XI-V 26 May 04:32:58 04:35:24 14° 64° (ENE) 04:37:50 437.345
AO-7 26 May 04:44:13 04:52:29 61° 103° (ESE) 05:00:43 29.400- 29.500
KKS-1 26 May 04:46:25 04:50:25 32° 263° (W) 04:54:25 437.445
MOZHAYETS 4 26 May 04:47:43 04:52:03 45° 261° (W) 04:56:26
ISS 26 May 04:51:00 04:54:11 49° 35° (NE) 04:57:20 145.825
PHONESAT 2.4 26 May 04:52:34 04:54:56 20° 211° (SSW) 04:57:17 2401.200-2431.200
Cosmos 2491 26 May 04:56:31 05:05:21 86° 96° (E) 05:14:14 435.465 / 435.565
Gurwin Techsat 1B 26 May 05:02:52 05:05:05 13° 300° (WNW) 05:07:18 435.225
STARS 26 May 05:27:53 05:31:20 22° 265° (W) 05:34:47 437.465
ITAMSAT 1 26 May 05:31:49 05:34:59 16° 298° (WNW) 05:38:10 435.822/435.867
YUBILEINY 26 May 06:03:14 06:09:13 21° 280° (W) 06:15:14 435.215
HORYU 2 26 May 06:04:43 06:09:10 85° 284° (WNW) 06:13:36 437.375
CUBESAT XI-V 26 May 06:07:40 06:12:15 59° 260° (W) 06:16:54 437.345
Cubesat XI-IV 26 May 06:07:42 06:09:36 12° 90° (E) 06:11:31 437.490
NOAA 15 26 May 06:08:06 06:11:45 19° 93° (E) 06:15:21 137.62
RS-15 26 May 06:13:25 06:19:25 15° 265° (W) 06:25:25 29.354- 29.394
AO-85 26 May 06:20:20 06:25:24 40° 114° (ESE) 06:30:25 145.980
